This demonstration page uses our WeatherBlox Daily Observations layout. Learn more.

Left ArrowRight Arrow

39.01783, -85.05884

Hourly Observations for November 13, 2021

Temp ( °F °C ) Dew Point ( °F °C ) Humidity (%) Winds ( mph kmh ) Pressure ( in mb ) Visibility ( mi km ) Precip ( " mm )
12:52 am 00:52 Cloudy with Light Rain 36 2.2 32 undefined 86 86 SW 7 11 29.94 1014 10 16 0.00 0.00
1:17 am 01:17 Cloudy with Light Snow 36 2.2 31 -0.6 82 82 W 15 24 29.98 1015 7 11 0.00 0.00
1:42 am 01:42 Cloudy with Light Snow 35 1.7 30 -1.1 82 82 W 10 17 29.98 1015 8 13 0.01 0.25
1:52 am 01:52 Cloudy 35 1.7 30 -1.1 82 82 W 8 13 29.94 1014 10 16 0.01 0.25
2:52 am 02:52 Mostly Cloudy 34 1.1 30 -1.1 85 85 SW 6 9 29.95 1014 10 16 N/A
3:52 am 03:52 Cloudy 35 1.7 30 -1.1 82 82 WSW 7 11 29.95 1014 10 16 N/A
4:52 am 04:52 Cloudy 34 1.1 28 -2.2 79 79 WSW 9 15 29.96 1015 10 16 N/A
5:52 am 05:52 Cloudy 34 1.1 27 -2.8 76 76 WSW 9 15 29.97 1015 10 16 N/A
6:52 am 06:52 Cloudy 34 1.1 27 -2.8 76 76 WSW 12 19 30.00 1016 10 16 N/A
7:52 am 07:52 Mostly Cloudy 34 1.1 27 -2.8 76 76 WSW 8 13 30.01 1016 10 16 N/A
8:52 am 08:52 Mostly Cloudy 36 2.2 28 -2.2 73 73 SW 13 20 30.02 1017 10 16 N/A
9:18 am 09:18 Mostly Cloudy 37 2.8 29 -1.7 73 73 W 13 20 30.07 1018 10 16 N/A
9:52 am 09:52 Cloudy 37 2.8 29 -1.7 73 73 WSW 12 19 30.04 1017 10 16 N/A
10:52 am 10:52 Cloudy 38 3.3 29 -1.7 70 70 W 12 19 30.05 1018 10 16 N/A
11:52 am 11:52 Cloudy 39 3.9 29 -1.7 67 67 W 12 19 30.05 1018 10 16 N/A
12:52 pm 12:52 Cloudy 39 3.9 29 -1.7 67 67 SW 12 19 30.04 1017 10 16 N/A
1:52 pm 13:52 Cloudy 39 3.9 29 -1.7 67 67 W 10 17 30.04 1017 10 16 N/A
2:52 pm 14:52 Cloudy 39 3.9 29 -1.7 67 67 W 8 13 30.04 1017 10 16 N/A
3:08 pm 15:08 Cloudy 39 3.9 28 -2.2 65 65 W 13 20 30.06 1018 10 16 N/A
3:52 pm 15:52 Cloudy 39 3.9 29 -1.7 67 67 W 10 17 30.05 1018 10 16 N/A
4:52 pm 16:52 Cloudy 38 3.3 28 -2.2 68 68 WSW 12 19 30.06 1018 10 16 N/A
5:52 pm 17:52 Cloudy 37 2.8 29 -1.7 73 73 WSW 7 11 30.07 1018 10 16 N/A
6:52 pm 18:52 Cloudy 37 2.8 28 -2.2 70 70 SW 8 13 30.08 1019 10 16 N/A
7:52 pm 19:52 Cloudy 37 2.8 28 -2.2 70 70 W 8 13 30.09 1019 10 16 N/A
8:14 pm 20:14 Cloudy 37 2.8 27 -2.8 67 67 W 10 17 30.11 1020 10 16 N/A
8:52 pm 20:52 Cloudy 37 2.8 26 -3.3 65 65 W 8 13 30.08 1019 10 16 N/A
9:52 pm 21:52 Cloudy 36 2.2 27 -2.8 70 70 W 6 9 30.08 1019 10 16 N/A
10:52 pm 22:52 Cloudy 36 2.2 27 -2.8 70 70 SW 6 9 30.08 1019 10 16 N/A
11:52 pm 23:52 Cloudy 36 2.2 26 -3.3 67 67 SW 6 9 30.05 1018 10 16 N/A

Powered by AerisWeather